RH
20 21 22 23 24 27 30 32 33 34 34 34 33 31 29 28 27 27 27 29 30 30 30 31 33 35 36 36 37 37 39 38 39 39 39 38 39 44 48 48 46 44 43
23 23 25 28 30 33 34 36 37 37 38 38 39 37 34 30 29 28 28 30 31 32 34 36 37 38 38 38 39 38 40 41 42 42 43 41 41 45 50 49 48 45 44
35 34 32 33 34 35 36 37 39 40 40 41 41 40 39 35 30 28 32 34 34 35 37 41 44 47 48 48 45 43 42 44 46 45 47 47 46 49 50 49 47 48 47
43 43 41 42 42 43 45 46 45 44 44 43 42 42 39 37 36 29 31 34 38 41 44 47 51 58 61 61 52 46 48 48 51 49 48 50 50 53 54 53 51 49 44
45 46 46 48 51 52 52 53 54 53 52 50 47 45 42 39 38 34 32 35 39 43 49 54 59 64 67 68 62 51 50 52 53 52 54 59 59 58 57 57 54 52 48
50 49 49 50 50 52 54 55 55 56 57 56 54 53 51 47 43 40 35 36 40 44 50 56 66 73 74 70 64 56 52 56 57 61 62 64 65 63 61 60 58 54 50
57 55 55 57 59 58 56 55 55 54 54 54 56 58 57 55 55 49 41 39 41 47 52 61 72 77 76 72 67 59 53 50 66 63 63 66 69 70 70 63 59 58 55
66 66 63 63 62 62 61 61 62 61 60 59 60 60 59 56 58 59 53 52 49 53 61 71 77 79 77 73 70 60 53 52 46 53 56 63 67 77 74 66 56 56 59
80 78 77 74 74 73 73 74 73 72 69 70 72 68 67 61 61 64 63 66 67 66 68 74 80 81 77 74 69 59 54 54 54 52 50 56 65 75 76 68 63 62 61
80 84 84 79 85 86 86 89 89 85 84 81 79 77 77 76 78 78 79 76 73 77 75 82 85 78 67 73 68 60 57 56 54 54 49 51 57 66 69 72 74 68 66
80 76 81 80 89 93 93 92 92 94 94 91 86 88 86 85 84 87 85 82 80 78 76 85 85 77 72 81 67 59 60 58 59 52 51 53 64 61 65 65 63 74 77
77 88 89 83 86 94 94 96 94 91 96 94 93 92 94 94 91 94 92 89 88 86 86 88 83 78 86 82 63 65 56 56 53 54 53 61 58 55 58 55 54 65 73
87 87 85 84 86 91 90 85 96 97 98 99 97 95 95 95 93 94 93 92 90 85 81 81 83 80 77 67 63 62 58 56 57 55 57 60 59 61 56 51 53 55 66
73 77 77 76 78 83 86 88 96 98 99 98 97 94 94 94 95 95 94 93 89 82 79 76 71 73 73 71 73 72 65 56 56 57 55 58 58 58 53 52 52 54 56
64 66 67 70 73 75 83 86 88 89 91 96 97 98 95 94 92 91 93 93 92 82 73 73 79 76 79 77 76 76 69 65 58 55 57 60 56 51 51 59 63 59 66
58 56 60 65 71 75 79 79 81 84 85 87 85 90 89 86 87 90 85 79 73 69 71 71 73 81 74 74 78 79 65 65 58 57 55 53 56 51 61 61 62 60 53
57 59 64 67 73 79 79 80 81 82 86 87 91 90 86 86 83 80 76 73 69 69 70 67 68 68 72 75 78 79 68 66 62 58 53 53 55 61 58 63 56 53 47
63 65 71 72 74 82 83 84 82 79 87 89 85 86 86 83 77 74 71 68 66 70 68 69 71 68 73 68 78 73 69 66 61 56 55 58 64 59 59 55 47 43 39
64 68 73 79 82 85 84 79 76 75 70 69 67 65 64 61 58 55 55 55 58 57 62 59 55 60 62 65 75 75 70 66 61 56 60 63 59 53 49 41 38 36 34
57 62 68 71 68 68 67 65 62 57 53 47 44 44 44 42 41 40 39 40 42 46 50 55 56 63 59 71 76 76 75 71 60 60 64 55 43 43 38 37 35 28 19
57 61 57 55 52 51 50 48 47 43 41 39 39 39 39 40 40 41 42 44 46 48 49 49 56 60 63 67 78 74 75 72 65 68 54 42 41 34 30 24 18 16 16
39 38 41 41 44 46 44 42 42 42 39 40 39 40 41 40 41 43 46 48 51 51 53 59 58 62 66 71 72 76 75 69 67 55 46 43 35 27 23 18 16 16 17
38 41 42 43 44 47 47 46 46 45 44 43 43 43 45 47 48 51 51 53 55 60 60 60 61 65 63 68 73 77 70 72 62 53 42 32 29 25 20 18 18 18 20
45 47 46 45 47 50 51 51 51 50 50 49 49 49 50 50 51 53 55 59 61 62 62 62 63 66 69 72 76 72 72 64 48 41 35 33 28 22 20 20 20 22 24
47 48 50 53 55 55 56 56 55 55 56 55 55 55 56 59 60 60 61 63 63 63 63 64 67 70 73 76 72 69 55 42 39 37 35 30 25 23 23 24 26 27 28
53 54 56 56 56 57 56 56 58 60 62 64 63 61 63 64 63 62 66 67 66 65 67 70 73 75 78 73 58 42 36 37 39 38 32 27 26 27 29 29 30 31 32